sat.trackr.live / text

‹ back to catalog

STARLINK-1817

NORAD 46715 · 2020-073AX

PAYLOAD ACTIVE UNKNOWN

§ Identity

Operator
Country
US
Launch date
2020-10-18
Launch site
AFETR
Launch vehicle
Mass (kg)
RCS (m²)

Purposes: comms

External: N2YO · Heavens-Above · Gunter

§ Orbital elements

Epoch: 2026-05-25T02:57:18.425088Z

Period
91.34 min
Inclination
53.0439°
Eccentricity
0.0003463
Mean motion
15.76529767 rev/d
Perigee alt
338.0 km
Apogee alt
342.6 km
Semi-major
6,718.4 km
B*
6.4756e-4
RAAN
199.7326°
Arg perigee
21.0228°
Mean anomaly
339.0934°
Rev number
30,947

§ Raw data

STARLINK-18171 46715U 20073AX  26145.12312992  .00105755  00000+0  64756-3 0  99952 46715  53.0439 199.7326 0003463  21.0228 339.0934 15.76529767309476

JSON: /api/v1/satellites/46715 · /tle

For live sub-satellite position, see the globe view (requires WebGL).

§ Visibility from observer

Set your observer location to see the next 7 days of passes ≥ 10°. The values pass through the URL so the page stays shareable.

No JS? Fill the form by hand. The geolocation button needs JavaScript.